Location: Narrabri
(30.3170°S, 149.7830°E)
Time: 12:52:05
(UTC+10:00)

ISS - Visible Passes

Search period start: 23 June 2018 00:00
Search period end: 03 July 2018 00:00
Orbit: 402 x 408 km, 51.6° (Epoch: 23 June)

Date Brightness Start Highest point End Pass type
(mag) Time Alt. Az. Time Alt. Az. Time Alt. Az.
23 Jun -2.7 18:16:19 10° N 18:19:12 28° NE 18:19:47 26° ENE visible
24 Jun -2.3 19:00:27 10° WNW 19:03:00 33° WSW 19:03:00 33° WSW visible
25 Jun -3.8 18:08:08 10° NW 18:11:26 84° SW 18:13:25 22° SE visible
26 Jun -1.3 18:53:59 10° WSW 18:56:02 15° SW 18:56:26 15° SSW visible
27 Jun -2.1 18:00:53 10° WNW 18:03:47 28° SW 18:06:41 10° SSE visible
29 Jun -1.1 17:54:46 10° WSW 17:56:17 12° SW 17:57:48 10° S visible
